Probability
0 0 0 0 0 0 0 0 0 0 0 0 0 0 0 0 0 0 0 0 0 0 0 0 0 0 0 0 0 0 0 0 0 0 0 0 0 0 0 0 0 0 0 0
0 0 0 0 0 0 0 0 0 0 0 0 0 0 0 0 0 0 0 0 0 0 0 0 0 0 0 0 0 0 0 0 0 0 0 0 0 0 0 0 0 0 0 0
0 0 0 0 0 0 0 0 0 0 0 0 0 0 0 0 0 0 0 0 0 0 0 0 0 0 0 0 0 0 0 0 0 0 0 0 0 0 0 0 0 0 0 0
0 0 0 0 0 0 0 0 0 0 0 0 0 0 0 0 0 0 0 0 0 0 0 0 0 0 0 0 0 0 0 0 0 0 0 0 0 0 0 0 0 0 0 0
0 0 0 0 0 0 0 0 0 0 0 0 0 0 0 0 0 0 0 0 0 0 0 0 0 0 0 0 0 0 0 0 0 0 0 0 0 0 0 0 0 0 0 0
0 0 0 0 0 0 0 0 0 0 0 0 0 0 0 0 0 0 0 0 0 0 0 0 0 0 0 0 0 0 0 0 0 0 0 0 0 0 0 0 0 0 0 0
0 0 0 0 0 0 0 0 0 0 0 0 0 0 0 0 0 0 0 0 0 0 0 0 0 0 0 0 0 0 0 0 0 0 0 0 0 0 0 0 0 0 0 0
0 0 0 0 0 0 0 0 0 0 0 0 0 0 0 0 0 0 0 0 0 0 0 0 0 0 0 0 0 0 0 0 0 0 0 0 0 0 0 0 0 0 0 0
0 0 0 0 0 0 0 0 0 0 0 0 0 0 0 0 0 0 0 0 0 0 0 0 0 0 0 0 0 0 0 0 0 0 0 0 0 0 0 0 0 0 0 0
0 0 0 0 0 0 0 0 0 0 0 0 0 0 0 0 0 0 0 0 0 0 0 0 0 0 0 0 0 0 0 0 0 0 0 0 0 0 0 0 0 0 0 0
0 0 0 0 0 0 0 0 0 0 0 0 0 0 0 0 0 0 0 0 0 0 0 0 0 0 0 0 0 0 0 0 0 0 0 0 0 0 0 0 0 0 0 0
0 0 0 0 0 0 0 0 0 0 0 0 0 0 0 0 0 0 0 0 0 0 0 0 0 0 0 0 0 0 0 0 0 0 0 0 0 0 0 0 0 0 0 0
0 0 0 0 0 0 0 0 0 0 0 0 0 0 0 0 0 0 0 0 0 0 0 0 0 0 0 0 0 0 0 0 0 0 0 0 0 0 0 0 0 0 0 0
0 0 0 0 0 0 0 0 0 0 0 0 0 0 0 0 0 0 0 0 0 0 0 0 0 0 0 0 0 0 0 0 0 0 0 0 0 0 0 0 0 0 0 0
0 0 0 0 0 0 0 0 0 0 0 0 0 0 0 0 0 0 0 0 0 0 0 0 0 0 0 0 0 0 0 0 0 0 0 0 0 0 0 0 0 0 0 0
0 0 0 0 0 0 0 0 0 0 0 0 0 0 0 0 0 0 0 0 0 0 0 0 0 0 0 0 0 0 0 0 0 0 0 0 0 0 0 0 0 0 0 0
0 0 0 0 0 0 0 0 0 0 0 0 0 0 0 0 0 0 0 0 0 0 0 0 0 0 0 0 0 0 0 0 0 0 0 0 0 0 0 0 0 0 0 0
0 0 0 0 0 0 0 0 0 0 0 0 0 0 0 0 0 0 0 0 0 0 0 0 0 0 0 0 0 0 0 0 0 0 0 0 0 0 0 0 0 0 0 0
0 0 0 0 0 0 0 0 0 0 0 0 0 0 0 0 0 0 0 0 0 0 0 0 0 0 0 0 0 0 0 0 0 0 0 0 0 0 0 0 0 0 0 0
0 0 0 0 0 0 0 0 0 0 0 0 0 0 0 0 0 0 0 0 0 0 0 0 0 0 0 0 0 0 0 0 0 0 0 0 0 0 0 0 0 0 0 0
0 0 0 0 0 0 0 0 0 0 0 0 0 0 0 0 0 0 0 0 0 0 0 0 0 0 0 0 0 0 0 0 0 0 0 0 0 0 0 0 0 0 0 0
0 0 0 0 0 0 0 0 0 0 0 0 0 0 0 0 0 0 0 0 0 0 0 0 0 0 0 0 0 0 0 0 0 0 0 0 0 0 0 0 0 0 0 0
0 0 0 0 0 0 0 0 0 0 0 0 0 0 0 0 0 0 0 0 0 0 0 0 0 0 0 0 0 0 0 0 0 0 0 0 0 0 0 0 0 0 0 0
0 0 0 0 0 0 0 0 0 0 0 0 0 0 0 0 0 0 0 0 0 0 0 0 0 0 0 0 0 0 0 0 0 0 0 0 0 0 0 0 0 0 0 0
0 0 0 0 0 0 0 0 0 0 0 0 0 0 0 0 0 0 0 0 0 0 0 0 0 0 0 0 0 0 0 0 0 0 0 0 0 0 0 0 0 0 0 0
0 0 0 0 0 0 0 0 0 0 0 0 0 0 0 0 0 0 0 0 0 0 0 0 0 0 0 0 0 0 0 0 0 0 0 0 0 0 0 0 0 0 0 0
0 0 0 0 0 0 0 0 0 0 0 0 0 0 0 0 0 0 0 0 0 0 0 0 0 0 0 0 0 0 0 0 0 0 0 0 0 0 0 0 0 0 0 0
Wind_Speed
7 6 5 7 10 10 11 12 12 13 14 15 11 10 8 6 5 5 5 4 4 4 4 4 3 3 3 4 3 3 3 3 3 2 2 1 1 1 1 1 2 2 2 3
5 4 5 9 13 14 15 14 16 16 18 12 11 8 8 7 5 6 6 6 5 4 4 4 4 4 4 4 3 3 3 3 2 2 2 2 1 1 1 1 2 2 2 3
5 2 4 11 13 14 11 12 12 16 15 8 8 8 8 7 6 7 7 6 5 5 4 4 4 4 4 4 3 3 3 3 2 2 2 2 1 1 1 2 2 2 2 2
2 1 11 7 3 9 11 12 12 11 10 9 9 8 6 6 7 7 6 5 5 4 4 4 3 3 3 3 3 3 3 2 2 2 2 2 1 2 2 2 2 2 3 3
4 6 11 8 4 6 8 10 11 13 12 9 6 6 6 5 6 7 6 5 4 4 3 2 2 2 2 3 3 3 3 3 3 3 2 2 2 2 2 2 2 2 2 3
5 7 10 6 3 3 3 8 6 10 11 8 3 6 5 1 3 4 3 2 2 1 1 1 1 1 2 2 2 2 2 2 2 2 2 3 3 2 2 2 2 2 2 3
9 10 11 5 4 6 6 6 2 7 8 7 7 7 4 2 2 2 2 1 1 1 1 1 1 2 2 2 2 2 1 1 1 2 2 2 2 2 2 1 2 2 2 3
8 10 12 6 9 10 6 1 2 4 6 6 6 4 3 3 2 2 1 1 1 0 1 0 1 2 2 2 1 0 1 1 1 1 1 1 1 1 1 1 2 2 2 3
12 11 2 9 9 6 2 4 4 4 4 5 5 5 5 4 3 2 2 1 1 1 1 0 0 1 2 2 0 1 1 1 1 1 1 1 2 2 1 2 2 2 2 2
8 10 7 8 7 6 5 6 5 4 4 5 6 5 5 4 3 3 2 2 1 1 2 1 1 1 1 1 1 2 2 1 1 1 1 1 1 2 2 2 2 2 2 3
10 8 5 8 10 9 7 5 5 4 5 5 5 5 5 5 4 3 2 2 2 2 3 2 1 1 1 1 2 2 2 2 1 1 1 1 2 2 3 3 3 3 3 3
11 8 8 6 5 7 7 7 7 6 5 5 5 6 5 4 4 3 3 2 2 2 2 2 2 2 1 1 2 2 2 2 2 1 1 1 1 2 3 4 5 6 6 5
8 4 5 5 4 5 6 7 6 6 6 6 5 5 5 4 3 3 3 3 3 3 3 2 2 2 2 2 2 3 3 2 2 2 2 2 2 2 2 3 4 5 6 6
6 4 5 6 6 5 5 5 4 3 4 4 4 3 3 3 3 3 4 4 3 3 2 2 2 3 2 2 2 3 3 3 3 2 2 2 2 2 2 3 3 3 4 6
7 7 7 4 3 3 3 2 3 3 3 3 3 4 4 4 5 5 3 2 2 2 3 3 3 3 2 2 3 3 3 2 2 2 2 2 2 2 3 3 3 3 3 4
5 5 5 6 6 5 4 4 5 6 5 4 4 4 5 4 4 3 2 3 4 4 4 4 4 3 2 2 3 2 2 3 3 2 2 2 2 2 2 3 3 3 3 3
4 6 6 6 8 7 7 7 7 7 5 5 5 4 3 3 2 3 3 3 4 4 3 4 4 2 2 3 3 2 2 2 3 2 2 2 2 2 2 3 3 3 4 4
6 7 7 7 8 7 7 7 7 6 6 5 4 3 4 5 5 4 3 2 2 2 3 4 3 3 3 3 3 2 2 2 2 2 2 2 2 2 3 3 3 4 4 4
5 6 6 6 6 6 6 6 6 5 4 3 4 5 5 4 4 3 3 3 3 4 3 3 3 2 2 3 3 2 2 2 2 2 2 2 2 2 3 3 3 4 4 4
5 5 5 5 4 5 5 4 4 3 3 4 4 4 3 4 3 3 4 4 4 3 3 3 2 2 3 3 2 2 3 3 3 2 2 2 3 3 3 3 3 4 4 4
4 4 4 4 4 3 4 4 3 4 3 4 5 5 4 3 3 3 3 3 2 2 2 3 2 2 2 2 3 2 3 3 3 3 3 3 3 3 3 3 4 4 4 4
3 3 3 3 2 3 2 2 2 3 3 3 3 3 3 3 3 3 3 3 2 2 2 2 2 2 3 3 2 2 3 3 3 2 3 3 3 3 3 4 4 4 4 4
3 3 3 2 2 2 1 1 2 2 3 3 4 4 4 3 3 3 2 2 1 2 2 2 3 3 3 2 2 2 2 3 3 3 3 3 3 3 4 4 4 4 4 4
2 2 2 1 1 1 1 1 1 1 1 1 2 3 3 2 2 2 1 1 2 2 2 2 3 3 2 1 2 2 2 2 3 3 3 3 3 3 4 4 4 4 5 6
1 1 1 1 1 2 1 1 0 0 1 1 1 1 1 1 2 1 1 2 2 1 1 2 2 2 1 1 2 2 2 2 2 2 3 3 3 3 4 4 4 4 5 5
1 1 1 1 1 1 0 1 1 1 1 1 0 0 0 0 1 1 1 1 2 2 1 1 1 2 2 2 2 2 2 2 2 3 3 3 4 4 4 4 6 5 5 5
1 1 1 1 1 1 0 1 1 1 1 1 1 1 0 0 1 1 1 1 1 1 1 1 1 1 1 1 2 2 2 2 2 3 3 3 3 4 4 5 5 5 5 5
Wind_Direction
266 279 258 250 245 227 225 235 244 258 262 274 282 285 285 285 280 273 262 255 249 251 252 244 235 227 221 213 206 192 189 196 206 211 208 206 214 230 250 256 258 261 261 263
260 264 262 266 255 240 240 244 249 263 269 274 283 280 277 271 261 262 261 256 253 253 252 245 238 232 226 214 205 195 195 201 199 195 198 206 222 229 247 267 273 272 267 263
250 292 289 260 238 222 223 226 230 245 258 278 278 269 269 264 254 256 261 260 255 252 249 245 240 228 227 216 198 194 199 199 197 197 200 211 231 231 243 255 266 270 277 277
239 190 240 247 195 212 227 238 232 246 260 263 265 275 274 263 256 255 255 256 255 257 259 259 251 232 224 202 193 196 199 201 205 202 206 208 212 232 247 248 252 267 278 282
198 237 265 276 228 193 215 249 229 236 252 267 289 289 258 248 253 254 251 250 251 250 254 255 246 223 201 190 190 196 206 213 214 202 199 206 217 234 247 251 259 267 275 279
202 229 244 249 154 160 186 260 222 217 239 253 250 265 269 271 265 262 262 261 261 254 237 223 230 191 186 192 193 209 224 233 229 208 201 213 225 235 243 246 256 270 279 283
220 239 257 251 156 158 207 256 198 208 227 228 224 248 309 318 293 280 276 283 269 215 214 221 192 168 182 191 215 232 233 231 223 211 214 220 226 234 232 242 257 267 277 286
200 224 245 172 161 199 232 280 209 223 228 230 240 264 286 288 285 282 287 293 266 212 244 278 174 174 190 218 237 189 178 192 209 216 225 217 214 231 233 229 240 260 276 291
203 223 241 169 198 217 236 239 241 235 232 226 236 248 253 259 260 255 249 262 252 207 212 285 245 200 206 234 185 160 167 187 199 208 219 219 212 218 224 227 240 257 265 278
236 248 239 225 235 242 238 242 249 246 237 225 233 239 241 244 247 241 238 239 217 192 204 235 254 257 240 223 178 175 187 196 191 195 211 225 234 233 233 232 239 249 262 277
239 253 262 246 234 234 235 240 247 252 246 235 231 237 236 238 238 237 241 236 210 208 217 228 230 243 248 203 182 190 193 196 202 206 209 227 247 251 252 254 250 251 257 265
233 221 219 237 214 213 219 229 235 243 252 245 230 235 234 237 234 228 226 223 218 220 222 229 224 235 237 217 197 190 197 202 207 211 217 225 246 281 273 273 283 277 280 281
244 242 236 251 242 220 223 235 237 233 236 245 238 226 227 235 233 223 221 219 219 216 215 218 225 237 238 221 207 203 209 214 214 214 217 224 233 248 281 297 288 284 285 289
233 225 242 239 241 244 236 236 231 232 234 234 231 217 215 226 225 219 223 224 217 204 207 212 221 241 244 222 210 209 218 218 219 221 223 227 232 241 252 268 289 297 304 308
231 227 232 240 248 242 227 208 210 229 229 233 213 206 206 212 222 229 227 211 194 196 208 208 222 246 243 215 211 213 219 218 219 226 228 230 233 239 247 256 267 282 296 307
239 233 229 232 240 242 231 218 226 239 234 230 222 221 218 219 226 229 212 188 190 210 214 213 229 237 219 212 215 217 220 221 225 224 225 227 229 233 243 252 263 272 279 291
212 233 229 235 243 243 234 232 234 239 234 228 228 221 206 200 215 226 222 209 211 221 224 226 233 226 211 211 215 217 214 212 213 222 225 228 234 240 247 254 261 270 275 283
233 236 230 229 234 240 244 238 236 234 230 231 217 190 192 200 216 222 218 206 215 240 241 235 223 208 206 211 214 216 213 216 218 222 228 234 244 248 250 254 260 269 280 288
247 246 248 244 239 236 240 237 234 232 225 204 194 202 209 215 217 208 186 188 206 230 237 215 212 182 200 218 212 208 209 212 218 223 228 232 244 247 249 253 259 267 277 284
253 252 253 253 249 237 238 237 227 221 207 188 187 193 206 213 201 190 190 211 224 227 210 206 208 210 216 219 218 210 209 212 216 220 223 230 239 248 251 255 262 269 274 277
260 259 255 253 260 257 242 230 213 213 201 185 190 201 210 211 194 187 194 226 237 194 188 196 206 212 212 207 205 207 207 209 213 217 221 228 238 247 253 258 263 267 272 276
262 257 256 253 249 271 275 234 204 196 183 185 193 191 188 197 198 203 216 229 220 183 195 210 215 211 213 214 211 205 206 210 216 219 224 229 236 246 254 260 265 269 271 273
264 255 251 244 236 255 300 260 200 189 189 192 194 195 199 204 204 202 225 218 198 201 219 224 220 217 219 216 208 207 209 213 221 227 231 236 241 248 255 262 265 268 271 274
256 251 249 245 167 173 240 262 222 199 183 198 203 199 196 197 217 227 226 201 207 226 242 229 227 226 217 218 215 216 218 221 228 234 238 243 246 249 253 258 263 266 268 273
281 272 216 176 193 222 230 205 116 139 162 192 214 210 213 219 216 211 206 211 212 220 230 231 228 224 223 216 218 224 228 229 231 234 238 242 246 250 253 256 259 264 267 269
315 291 281 265 255 254 219 179 191 207 190 194 306 294 158 175 204 211 202 202 209 218 227 229 220 216 217 215 220 229 234 234 235 237 241 246 249 252 254 257 262 264 267 269
8 8 18 6 350 333 260 196 196 212 207 200 237 236 191 184 191 194 196 198 204 213 222 227 222 220 219 217 220 230 236 238 239 243 247 249 252 254 257 260 263 266 268 270